Flag for Slovakia Weather past 2 weeks in Prešov, Slovakia

Now
61 °F

Clear.


Feels Like: 61 °F
Forecast: 44 / 73 °F
Wind: 7 mph from Northeast

Location: Kosice - Barca

Current Time: Sep 16, 2014 at 4:07:01 AM

Latest Report: Sep 16, 2014 at 3:30 AM


Visibility: 10 mi

Pressure: 30.09 "Hg

Humidity: 77%

Dew point: 54 °F

Location of PrešovLocation

Historic Weather in Prešov — Graph

°F

Prešov temperature yesterday

Maximum temperature yesterday: 77 °F (at 2:00 PM)
Minimum temperature yesterday: 61 °F (at 5:00 AM)
Average temperature yesterday: 68 °F

Past Weeks' High & Low Weather Summary

 TemperatureHumidityPressure
High81 °F (Sep 9, 4:00 PM)100% (Sep 7, 2:30 AM)30.09 "Hg (Sep 7, 2:30 AM)
Low55 °F (Sep 9, 3:00 AM)37% (Sep 5, 3:30 PM)29.83 "Hg (Sep 1, 4:00 AM)
Average66 °F77%29.99 "Hg
* Reported Sep 1 3:00 AM — Sep 16 3:00 AM, Prešov, Weather by CustomWeather, © 2014

Note: Actual official high and low records may vary slightly from our data, if they occured in-between our weather recording intervals... More about our weather records

Advertising

Prešov weather history for previous 24 hours

 ConditionsComfort  
Time TempWeatherWind HumidityBarometerVisibility
3:00 AM
Sep 16
61 °FClear.5 mph77%30.09 "Hg10 mi
2:30 AM61 °FClear.7 mph77%30.07 "Hg10 mi
2:00 AM61 °FClear.7 mph77%30.07 "Hg10 mi
1:30 AM63 °FClear.7 mph77%30.07 "Hg10 mi
1:00 AM64 °FPassing clouds.6 mph73%30.07 "HgN/A
12:30 AM63 °FPassing clouds.3 mph77%30.07 "HgN/A
12:00 AM63 °FClear.2 mph77%30.07 "Hg10 mi
11:30 PM
Sep 15
64 °FClear.9 mph73%30.07 "Hg10 mi
11:00 PM64 °FClear.10 mph78%30.07 "Hg10 mi
10:30 PM64 °FClear.8 mph78%30.07 "Hg10 mi
10:00 PM66 °FClear.8 mph68%30.07 "Hg10 mi
9:30 PM66 °FClear.9 mph68%30.07 "Hg10 mi
9:00 PM66 °FClear.9 mph68%30.07 "Hg10 mi
8:30 PM68 °FClear.10 mph64%30.07 "Hg10 mi
8:00 PM70 °FClear.10 mph60%30.07 "Hg10 mi
7:30 PM70 °FSunny.9 mph60%30.04 "Hg10 mi
7:00 PM70 °FSunny.8 mph60%30.04 "Hg10 mi
6:30 PM70 °FSunny.9 mph60%30.04 "Hg10 mi
6:00 PM70 °FSunny.7 mph60%30.04 "Hg10 mi
5:30 PM72 °FSunny.6 mph57%30.04 "Hg10 mi
5:00 PM73 °FPassing clouds.3 mph53%30.04 "HgN/A
4:30 PM75 °FSunny.2 mph50%30.04 "Hg10 mi
4:00 PM75 °FPassing clouds.5 mph47%30.04 "HgN/A
3:30 PM75 °FSunny.6 mph44%30.07 "Hg10 mi
3:00 PM77 °FPassing clouds.5 mph44%30.07 "HgN/A
2:30 PM77 °FSunny.2 mph44%30.07 "Hg10 mi
2:00 PM77 °FSunny.2 mph39%30.07 "Hg10 mi
1:30 PM75 °FPassing clouds.7 mph44%30.07 "HgN/A
1:00 PM75 °FPassing clouds.8 mph39%30.07 "HgN/A
12:30 PM73 °FPassing clouds.7 mph50%30.07 "HgN/A
12:00 PM72 °FPassing clouds.6 mph57%30.07 "HgN/A
11:30 AM73 °FPassing clouds.7 mph50%30.07 "HgN/A
11:00 AM70 °FPassing clouds.7 mph57%30.07 "HgN/A
10:30 AM68 °FSunny.7 mph64%30.07 "Hg10 mi
10:00 AM68 °FSunny.8 mph69%30.07 "Hg10 mi
9:30 AM66 °FSunny.7 mph68%30.07 "Hg10 mi
9:00 AM64 °FSunny.7 mph73%30.07 "Hg10 mi
8:30 AM64 °FSunny.7 mph73%30.04 "Hg10 mi
8:00 AM63 °FSunny.5 mph77%30.04 "Hg10 mi
7:30 AM63 °FPassing clouds.8 mph77%30.04 "HgN/A
7:00 AM63 °FClear.7 mph77%30.04 "Hg10 mi
6:30 AM63 °FClear.7 mph77%30.04 "Hg10 mi
6:00 AM63 °FClear.6 mph77%30.04 "Hg10 mi
5:30 AM63 °FPassing clouds.5 mph77%30.01 "HgN/A
5:00 AM61 °FClear.9 mph83%30.01 "Hg10 mi
4:30 AM63 °FClear.9 mph77%30.01 "Hg10 mi
4:00 AM63 °FClear.9 mph77%30.01 "Hg10 mi
Weather by CustomWeather, © 2014

See weather overviewHow to use our weather pages